Preview of NWS' New Version of Forecast
This preview is not operational and should not be used for support decisions.

Regional Weather Roundup (RWR)

Issued by National Weather Service (NWS)

                            
000
ASUS45 KCYS 180010
RWRWY 

WYOMING REGIONAL WEATHER ROUNDUP
NATIONAL WEATHER SERVICE CHEYENNE WY
600 PM MDT WED APR 17 2019

NOTE:  "FAIR" INDICATES FEW OR NO CLOUDS BELOW 12,000 FEET
WITH NO SIGNIFICANT WEATHER AND/OR OBSTRUCTIONS TO VISIBILITY.

WYZ001-180100-
...YELLOWSTONE NATIONAL PARK...
  
CITY           SKY/WX    TMP DP  RH WIND       PRES   REMARKS
LK YELLOWSTONE NOT AVBL                                               
W YELLOWSTONE  NOT AVBL                                               

$$
WYZ002>013-054>058-071-098>099-180100-
...NORTHERN WYOMING...
  
CITY           SKY/WX    TMP DP  RH WIND       PRES   REMARKS
JACKSON        LGT RAIN  42  28  57 W9        30.17R                  
CODY           PTSUNNY   52  27  38 W14G20    30.03R                  
GREYBULL       LGT RAIN  54  31  41 N15G24    29.96F                  
6HR MIN TEMP:  51; 6HR MAX TEMP:  58; 6HR PCP: TRACE;                

WORLAND        MOSUNNY   57  27  31 N7        29.98S                  
6HR MIN TEMP:  51; 6HR MAX TEMP:  58; 6HR PCP: TRACE;                

SHERIDAN       PTSUNNY   49  33  54 N23G30    29.98R                  
6HR MIN TEMP:  49; 6HR MAX TEMP:  57;                                

BUFFALO        LGT RAIN  45  34  65 NW13      30.00R                  
6HR MIN TEMP:  44; 6HR MAX TEMP:  53; 6HR PCP: TRACE;                

GILLETTE       MOSUNNY   51  30  44 NW21G33   29.94R                  
6HR MIN TEMP:  49; 6HR MAX TEMP:  55;                                

HULETT         CLOUDY    52  27  37 NW10G18   29.93R                  
NEWCASTLE      PTSUNNY   52  21  30 NW21G40   29.94R                  

$$
WYZ014>020-022>026-101>103-180100-
...CENTRAL WYOMING...
  
CITY           SKY/WX    TMP DP  RH WIND       PRES   REMARKS
BIG PINEY      PTSUNNY   46  23  40 N28G33    30.15R                  
6HR MIN TEMP:  45; 6HR MAX TEMP:  51;                                

PINEDALE       MOSUNNY   43  27  52 NW25G35   30.14R                  
DUBOIS         CLOUDY    41  21  45 NW31G41   30.06S                  
LANDER         PTSUNNY   55  19  24 NW38G49   29.95R                  
6HR MIN TEMP:  52; 6HR MAX TEMP:  59;                                

RIVERTON       CLOUDY    53  28  38 N13       30.00R                  
6HR MIN TEMP:  50; 6HR MAX TEMP:  61; 6HR PCP: TRACE;                

CASPER         CLOUDY    47  33  58 N10       29.98R                  
6HR MIN TEMP:  47; 6HR MAX TEMP:  57;                                

DOUGLAS        PTSUNNY   54  26  34 NW23G30   29.93R                  
6HR MIN TEMP:  50; 6HR MAX TEMP:  59;                                


$$
WYZ021-027>030-104>119-180100-
...SOUTHERN WYOMING...
  
CITY           SKY/WX    TMP DP  RH WIND       PRES   REMARKS
EVANSTON       CLOUDY    42  28  57 W15       30.22R                  
6HR MIN TEMP:  38; 6HR MAX TEMP:  45;                                

KEMMERER       CLOUDY    43  28  56 W16G29    30.18S                  
FORT BRIDGER   CLOUDY    45  30  57 W18G30    30.22R                  
ROCK SPRINGS   PTSUNNY   50  26  39 W25G39    30.10R                  
6HR MIN TEMP:  42; 6HR MAX TEMP:  52;                                

DIXON          PTSUNNY   53  23  31 W22       30.09R                  
RAWLINS        CLOUDY    51  26  37 W23G31    30.00S                  
6HR MIN TEMP:  45; 6HR MAX TEMP:  53;                                

SARATOGA       CLOUDY    50  25  37 W21G29    30.05S                  
LARAMIE        MOSUNNY   51  22  31 W21       29.97S                  
6HR MIN TEMP:  46; 6HR MAX TEMP:  53;                                

CHEYENNE       CLOUDY    55  24  30 NW15G26   29.93R                  
6HR MIN TEMP:  49; 6HR MAX TEMP:  58;                                

TORRINGTON     PTSUNNY   58  30  34 N14G21    29.89R                  
6HR MIN TEMP:  56; 6HR MAX TEMP:  62;                                

PINE BLUFFS    PTSUNNY   57  30  35 N22       29.90S                  

$$